{"data":{"norad_id":63463,"epoch":"2026-05-25T04:09:01.013760Z","epoch_age_seconds":60246,"freshness":"FRESH","line1":"1 63463U 25070D   26145.17292840  .00011962  00000+0  44337-3 0  9999","line2":"2 63463  43.0022 187.8626 0001459 266.4420  93.6265 15.27589989 64673","mean_motion":15.27589989,"eccentricity":0.0001459,"inclination_deg":43.0022,"raan_deg":187.8626,"arg_perigee_deg":266.442,"mean_anomaly_deg":93.6265,"bstar":0.00044337,"rev_number":6467,"period_min":94.266132297886,"perigee_km":482.01814285565,"apogee_km":484.02022823059,"semimajor_km":6861.1561855431,"source":"CELESTRAK","updated_at":"2026-05-25T13:38:20.004724Z"}}